Change the Weather History Date:

Thursday, May 29, 2014

  Actual Average (KLWS) Record (KLWS)
Temperature  
Mean Temperature 51 °F 62 °F  
Max Temperature 62 °F 74 °F 100 °F (1983)
Min Temperature 40 °F 50 °F 35 °F (1951)
Degree Days  
Heating Degree Days 14 4  
Month to date heating degree days 211  
Since 1 July heating degree days 5091  
Cooling Degree Days 0 2  
Month to date cooling degree days 28  
Year to date cooling degree days 30  
Growing Degree Days 1 (Base 50)    
Moisture  
Dew Point 36 °F    
Average Humidity 57    
Maximum Humidity 79    
Minimum Humidity 32    
Precipitation  
Precipitation 0.00 in 0.06 in 0.97 in (1989)
Month to date precipitation 1.50  
Year to date precipitation 5.83  
Snow  
Snow 0.00 in 0.00 in T in (1955)
Month to date snowfall 0.0  
Since 1 July snowfall 10.5  
Snow Depth -    
Sea Level Pressure  
Sea Level Pressure 30.20 in    
Wind  
Wind Speed 9 mph (WSW)    
Max Wind Speed 15 mph    
Max Gust Speed 24 mph    
Visibility 10 miles    
Events      
T = Trace of Precipitation, MM = Missing Value Source: NWS Daily Summary

Daily Weather History Graph

Daily Weather History Graph

Search for Another Location

Airport or City:

Trip Planner

Search our weather history database for the weather conditions in past years. The results will help you decide how hot, cold, wet, or windy it might be!

Date:

Astronomy

May. 29, 2014 Rise Set
Actual Time 4:59 AM PDT 8:25 PM PDT
Civil Twilight 4:22 AM PDT 9:02 PM PDT
Nautical Twilight 3:33 AM PDT 9:50 PM PDT
Astronomical Twilight 2:31 AM PDT 10:53 PM PDT
Moon 5:59 AM PDT (5/29) 9:15 PM PDT (5/29)
Length of Visible Light 16h 39m
Length of Day
15h 25m
New Moon, 1% of the Moon is Illuminated
May 29
New Moon
Jun 5
First Quarter
Jun 12
Full
Jun 19
Last Quarter
Jun 27
New

Hourly Weather History & Observations

Time (PDT) Temp. Windchill Dew Point Humidity Pressure Visibility Wind Dir Wind Speed Gust Speed Precip Events Conditions
12:15 AM 44.2 °F 38.8 °F 33.4 °F 66% 30.17 in 10.0 mi SW 10.4 mph - N/A   Clear
12:35 AM 44.1 °F 38.6 °F 33.1 °F 65% 30.17 in 10.0 mi SW 10.4 mph - N/A   Clear
12:55 AM 44.6 °F 37.8 °F 32.9 °F 64% 30.17 in 10.0 mi SW 15.0 mph 23.0 mph N/A   Clear
1:15 AM 45.5 °F 38.9 °F 32.9 °F 61% 30.17 in 10.0 mi SW 15.0 mph 24.2 mph N/A   Clear
1:35 AM 44.6 °F 38.8 °F 33.3 °F 64% 30.18 in 10.0 mi SW 11.5 mph 18.4 mph N/A   Clear
1:55 AM 43.9 °F 38.3 °F 33.1 °F 66% 30.19 in 10.0 mi SW 10.4 mph - N/A   Clear
2:15 AM 43.7 °F 37.7 °F 33.1 °F 66% 30.19 in 10.0 mi SW 11.5 mph - N/A   Clear
2:35 AM 43.0 °F 36.0 °F 33.1 °F 68% 30.20 in 10.0 mi SW 13.8 mph - N/A   Clear
2:55 AM 41.2 °F 33.7 °F 33.1 °F 73% 30.19 in 10.0 mi SW 13.8 mph - N/A   Clear
3:15 AM 40.3 °F 33.4 °F 32.7 °F 74% 30.19 in 10.0 mi SW 11.5 mph - N/A   Scattered Clouds
3:35 AM 41.5 °F 35.4 °F 32.9 °F 71% 30.20 in 10.0 mi SW 10.4 mph - N/A   Mostly Cloudy
4:00 AM 42.3 °F 36.3 °F 33.1 °F 70% 30.20 in 10.0 mi SW 10.4 mph - N/A   Overcast
4:15 AM 42.6 °F 36.8 °F 33.3 °F 69% 30.20 in 10.0 mi SW 10.4 mph - N/A   Overcast
4:35 AM 43.7 °F 37.7 °F 33.3 °F 67% 30.20 in 10.0 mi SW 11.5 mph - N/A   Overcast
4:55 AM 44.6 °F 38.8 °F 33.1 °F 64% 30.20 in 10.0 mi SW 11.5 mph - N/A   Overcast
5:15 AM 44.6 °F 38.8 °F 32.9 °F 64% 30.21 in 10.0 mi WSW 11.5 mph 17.3 mph N/A   Overcast
5:35 AM 43.9 °F 37.9 °F 33.6 °F 67% 30.21 in 10.0 mi SW 11.5 mph - N/A   Overcast
5:55 AM 43.5 °F 37.9 °F 34.3 °F 70% 30.22 in 10.0 mi WSW 10.4 mph - N/A   Overcast
6:15 AM 44.4 °F 39.0 °F 34.2 °F 67% 30.22 in 10.0 mi WSW 10.4 mph - N/A   Mostly Cloudy
6:35 AM 44.8 °F 38.7 °F 34.7 °F 68% 30.23 in 10.0 mi WSW 12.7 mph - N/A   Scattered Clouds
6:55 AM 45.5 °F 40.3 °F 35.4 °F 68% 30.23 in 10.0 mi WSW 10.4 mph 17.3 mph N/A   Clear
7:15 AM 46.2 °F 40.8 °F 35.8 °F 67% 30.23 in 10.0 mi WSW 11.5 mph 20.7 mph N/A   Clear
7:35 AM 46.8 °F - 34.9 °F 63% 30.24 in 10.0 mi WSW 11.5 mph 18.4 mph N/A   Clear
7:55 AM 47.5 °F - 35.6 °F 63% 30.24 in 10.0 mi SW 11.5 mph 17.3 mph N/A   Clear
8:15 AM 48.0 °F - 35.2 °F 61% 30.24 in 10.0 mi SW 8.1 mph 18.4 mph N/A   Clear
8:35 AM 48.7 °F - 35.8 °F 61% 30.24 in 10.0 mi WSW 10.4 mph 17.3 mph N/A   Clear
8:55 AM 49.5 °F - 36.7 °F 61% 30.24 in 10.0 mi West 5.8 mph 16.1 mph N/A   Clear
9:15 AM 50.2 °F - 36.9 °F 60% 30.24 in 10.0 mi WNW 8.1 mph - N/A   Clear
9:35 AM 50.5 °F - 36.7 °F 59% 30.24 in 10.0 mi WNW 5.8 mph - N/A   Clear
9:55 AM 51.3 °F - 37.0 °F 58% 30.24 in 10.0 mi WSW 5.8 mph - N/A   Clear
10:15 AM 52.2 °F - 37.2 °F 57% 30.24 in 10.0 mi West 6.9 mph - N/A   Clear
10:35 AM 52.9 °F - 37.2 °F 55% 30.24 in 10.0 mi Calm Calm - N/A   Clear
11:15 AM 54.3 °F - 37.2 °F 52% 30.23 in 10.0 mi Calm Calm - N/A   Scattered Clouds
11:35 AM 55.0 °F - 38.1 °F 53% 30.22 in 10.0 mi Calm Calm - N/A   Clear
11:55 AM 55.8 °F - 37.2 °F 50% 30.22 in 10.0 mi Calm Calm - N/A   Clear
12:15 PM 56.7 °F - 36.7 °F 47% 30.22 in 10.0 mi WSW 5.8 mph - N/A   Clear
12:35 PM 57.7 °F - 35.2 °F 43% 30.21 in 10.0 mi West 4.6 mph - N/A   Clear
12:55 PM 58.5 °F - 36.0 °F 43% 30.21 in 10.0 mi SW 4.6 mph - N/A   Clear
1:15 PM 59.5 °F - 35.2 °F 40% 30.20 in 10.0 mi NW 6.9 mph - N/A   Clear
1:35 PM 59.9 °F - 35.1 °F 39% 30.20 in 10.0 mi West 4.6 mph - N/A   Clear
1:55 PM 60.6 °F - 33.8 °F 37% 30.20 in 10.0 mi WNW 8.1 mph - N/A   Clear
2:15 PM 60.8 °F - 34.3 °F 37% 30.19 in 10.0 mi WNW 5.8 mph - N/A   Clear
2:35 PM 61.7 °F - 34.5 °F 36% 30.19 in 10.0 mi WNW 10.4 mph - N/A   Clear
2:55 PM 61.9 °F - 33.1 °F 34% 30.19 in 10.0 mi NW 9.2 mph - N/A   Clear
3:15 PM 62.8 °F - 32.2 °F 32% 30.19 in 10.0 mi WSW 6.9 mph - N/A   Clear
3:35 PM 62.8 °F - 32.2 °F 32% 30.19 in 10.0 mi NNW 3.5 mph - N/A   Clear
3:55 PM 62.8 °F - 32.0 °F 32% 30.19 in 10.0 mi Calm Calm - N/A   Clear
4:15 PM 62.4 °F - 34.9 °F 36% 30.19 in 10.0 mi NNE 9.2 mph 16.1 mph N/A   Clear
4:35 PM 61.9 °F - 36.7 °F 39% 30.18 in 10.0 mi NE 8.1 mph - N/A   Clear
4:55 PM 61.9 °F - 37.0 °F 40% 30.18 in 10.0 mi ENE 6.9 mph - N/A   Clear
5:15 PM 61.5 °F - 36.7 °F 40% 30.17 in 10.0 mi NNE 8.1 mph - N/A   Clear
5:35 PM 61.2 °F - 36.5 °F 40% 30.16 in 10.0 mi ENE 5.8 mph - N/A   Clear
5:55 PM 61.0 °F - 36.5 °F 40% 30.16 in 10.0 mi ENE 5.8 mph - N/A   Clear
6:15 PM 60.6 °F - 36.3 °F 40% 30.16 in 10.0 mi NE 5.8 mph - N/A   Clear
6:35 PM 60.3 °F - 35.8 °F 40% 30.16 in 10.0 mi NE 5.8 mph - N/A   Clear
6:55 PM 59.9 °F - 36.1 °F 41% 30.16 in 10.0 mi NNE 5.8 mph - N/A   Clear
7:15 PM 59.4 °F - 36.5 °F 43% 30.16 in 10.0 mi NNE 6.9 mph - N/A   Clear
7:35 PM 58.3 °F - 39.7 °F 50% 30.16 in 10.0 mi NNE 4.6 mph - N/A   Clear
7:55 PM 56.7 °F - 41.2 °F 56% 30.16 in 10.0 mi North 3.5 mph - N/A   Clear
8:15 PM 55.2 °F - 40.6 °F 58% 30.16 in 10.0 mi Calm Calm - N/A   Clear
8:35 PM 53.6 °F - 40.5 °F 61% 30.16 in 10.0 mi Calm Calm - N/A   Clear
8:55 PM 53.4 °F - 39.2 °F 59% 30.16 in 10.0 mi Calm Calm - N/A   Clear
9:15 PM 49.5 °F - 39.2 °F 68% 30.17 in 10.0 mi Calm Calm - N/A   Clear
9:35 PM 47.8 °F - 39.2 °F 72% 30.18 in 10.0 mi Calm Calm - N/A   Clear
9:55 PM 46.8 °F - 38.7 °F 73% 30.18 in 10.0 mi SE 3.5 mph - N/A   Clear
10:15 PM 46.2 °F 45.0 °F 38.3 °F 74% 30.18 in 10.0 mi South 3.5 mph - N/A   Clear
10:35 PM 45.3 °F 43.0 °F 37.8 °F 75% 30.18 in 10.0 mi SSE 4.6 mph - N/A   Clear
10:55 PM 43.7 °F - 37.4 °F 78% 30.18 in 10.0 mi Calm Calm - N/A   Clear
11:15 PM 44.2 °F - 37.2 °F 76% 30.18 in 10.0 mi Calm Calm - N/A   Clear
11:35 PM 42.8 °F - 36.3 °F 78% 30.18 in 10.0 mi Calm Calm - N/A   Clear
11:55 PM 42.1 °F - 36.1 °F 79% 30.18 in 10.0 mi Calm Calm - N/A   Clear